Regional Weather Roundup
Issued by NWS

Home | Current Version | Previous Version | Graphics & Text | Print | Product List | Glossary On
Versions: 1 2 3 4 5 6 7 8 9 10 11 12 13 14 15 16 17 18 19 20 21 22 23 24 25 26 27 28 29 30 31 32 33 34 35 36 37 38 39 40 41 42 43 44 45 46 47 48 49 50
961
ASUS45 KTFX 140410
RWRMT
MONTANA REGIONAL WEATHER ROUNDUP
NATIONAL WEATHER SERVICE GREAT FALLS MT
900 PM MST WED DEC 13 2017

NOTE: "FAIR" INDICATES FEW OR NO CLOUDS BELOW 12000 FEET WITH NO
SIGNIFICANT WEATHER AND/OR OBSTRUCTIONS TO VISIBILITY.

MTZ001>007-043-140500-
WEST OF THE DIVIDE

CITY           SKY/WX    TMP DP  RH WIND       PRES   REMARKS
KALISPELL      CLOUDY    21  20  96 W3        30.51R
MISSOULA       FAIR      24  22  91 NW3       30.47R
BUTTE          CLOUDY    29  24  82 N3        30.38R
MULLAN PASS    FAIR      24  21  88 S6        30.37R WCI  17
ANACONDA         N/A     28  27  93 CALM      30.41R
DEER LODGE       N/A     27  27 100 N5        30.44R
EUREKA           N/A     23  18  80 MISG      30.55S
HAMILTON         N/A     28  27  93 SE3       30.45F
LIBBY            N/A     25  21  86 S5        30.52R
RONAN            N/A     26  23  88 SE2       30.48R
$$

MTZ008-052>055-140500-
SOUTHWEST MONTANA

CITY           SKY/WX    TMP DP  RH WIND       PRES   REMARKS
BOZEMAN        CLOUDY    28  26  92 W5        30.40R FOG
DILLON         CLOUDY    31  26  82 CALM      30.36R
W YELLOWSTONE  CLOUDY    19  19 100 CALM      30.30R
ENNIS          CLOUDY    28  27  93 NW10      30.39S WCI  19
THREE FORKS      N/A     27  25  92 CALM      30.34R
TWIN BRIDGES     N/A     30  21  69 CALM      30.30R
$$

MTZ009-010-012-014-046-048-049-054-140500-
EAST SLOPES AND CENTRAL MONTANA

CITY           SKY/WX    TMP DP  RH WIND       PRES   REMARKS
CUT BANK       FAIR      30  22  72 NW15      30.33S WCI  19
GREAT FALLS    FAIR      29  25  85 SW10      30.34R WCI  20
MALMSTROM AFB  FAIR      33  27  78 W13       30.34R WCI  24
HELENA         FOG       14  13  95 CALM      30.40R VSB 1/4
BOWMANS CRNR   MOCLDY    26  26  99 SW9       30.34R WCI  17
CHOTEAU          N/A     32  18  55 NW12      30.36S WCI  23
FAIRFIELD      MOCLDY    31  19  61 NW3       30.34R
POWER          FAIR      22  16  75 W8        30.33R WCI  13
RAYNESFORD     FAIR      38  23  55 W18G28    30.30S WCI  28
ULM            FAIR      30  26  84 SW5       30.36R
$$

MTZ011-013-016-021-045-047-050-051-140500-
NORTH CENTRAL MONTANA

CITY           SKY/WX    TMP DP  RH WIND       PRES   REMARKS
HAVRE          FAIR      30  23  75 W10       30.27R WCI  21
LEWISTOWN      CLOUDY    35  25  66 SW10      30.26R WCI  27
N BAR RANCH    FAIR      36  21  55 NW30G38   30.20S WCI  22
CHINOOK          N/A     34  25  69 W12       30.26R WCI  25
DENTON         MOCLDY    37  24  59 NW20      30.24R WCI  27
GEYSER         FAIR      34  24  67 SW13G31   30.28S WCI  25
GRASS RANGE    MOCLDY    37  25  64 W23G32    30.19R WCI  25
STANFORD       FAIR      34  22  61 NW23      30.26S WCI  22
$$

MTZ017>020-022>027-061-062-140500-
NORTHEAST MONTANA

CITY           SKY/WX    TMP DP  RH WIND       PRES   REMARKS
GLASGOW        CLOUDY    34  25  69 NW16      30.11S WCI  24
GLENDIVE       MOCLDY    36  25  64 W12       30.08S WCI  28
JORDAN           N/A     37  24  59 W12       30.15S WCI  29
SIDNEY         CLOUDY    38  27  64 NW12      30.05S WCI  30
WOLF POINT     CLOUDY    36  26  67 SW8       30.07S WCI  30
MALTA          PTCLDY    34  25  69 W15G21    30.18R WCI  24
PLENTYWOOD       N/A     34  28  80 W12       30.00R WCI  25
POPLAR           N/A     37  25  60 W9        30.05F WCI  31
$$

MTZ028>42-056>058-140500-
SOUTHCENTRAL AND SOUTHEAST MONTANA

CITY           SKY/WX    TMP DP  RH WIND       PRES   REMARKS
BAKER          CLOUDY    32  32 100 W14       30.08S WCI  22
BILLINGS       MOCLDY    38  27  64 W15       30.26R WCI  29
LIVINGSTON     FAIR      31  28  89 W12       30.34S WCI  22
MILES CITY     CLOUDY    37  25  61 W6        30.15F
BIG TIMBER     CLOUDY    32  28  86 W16       30.33S WCI  21
FORSYTH          N/A     37  21  52 W10       30.19S WCI  30
LAUREL           N/A     39  28  65 NW15G21   30.27S WCI  31
$$

REGIONAL REPORTS...DAKOTAS

CITY           SKY/WX    TMP DP  RH WIND       PRES   REMARKS
WILLISTON      CLOUDY    35  28  75 W12       30.00F WCI  27
MINOT          CLOUDY    32  25  75 W8        29.95S WCI  25
DICKINSON      CLOUDY    33  26  75 W15       29.99S WCI  23
BEACH          CLOUDY    36  27  69 W16       30.07S WCI  26
CROSBY         FAIR      32  30  93 W12       29.97F WCI  23
TIOGA          FAIR      28  28 100 NW14      29.98S WCI  17
WATFORD CITY   FAIR      30  27  86 W9        30.01R WCI  22
BISMARCK       CLOUDY    34  25  69 NW7       30.00F WCI  28
GRAND FORKS    FLURRIES  19  15  84 N7        29.99S WCI  10
FARGO          CLOUDY    19  14  81 N10       30.00R WCI   7
BUFFALO SD       N/A     36  29  75 NW24G33   29.99F WCI  24
RAPID CITY     FAIR      39  23  52 NW26G32   30.07R WCI  28
$$

REGIONAL REPORTS...WYOMING/IDAHO/WASHINGTON

CITY           SKY/WX    TMP DP  RH WIND       PRES   REMARKS
GILLETTE       MOCLDY    33  19  56 NW13      30.15R WCI  24
SHERIDAN       CLOUDY    39  25  57 NW18      30.23R WCI  30
BUFFALO WY     FAIR      37  21  52 N25G36    30.18R WCI  25
CODY           CLOUDY    31  29  92 CALM      30.28R
YELLOWSTONE LA   N/A     21  19  92 CALM      30.28R
IDAHO FALLS    CLOUDY    23  21  92 SW5       30.35R FOG
SALMON         MOCLDY    19  16  88 SE3       30.45R
BOISE          CLOUDY    25  23  92 NW7       30.42R WCI  17
SPOKANE        CLOUDY    29  25  85 N9        30.53S WCI  20
$$

REGIONAL REPORTS...ALBERTA

CITY           SKY/WX    TMP DP  RH WIND       PRES   REMARKS
EDMONTON       CLEAR     32  23  69 W10       30.30R WCI  24
CALGARY        CLEAR     32  23  69 NW6       30.33R WCI  26
LETHBRIDGE     CLEAR     25  19  80 W9        30.34S WCI  15
MEDICINE HAT   CLEAR     36  25  64 W17       30.27S WCI  25
$$

REGIONAL REPORTS...SASKATCHEWAN

CITY           SKY/WX    TMP DP  RH WIND       PRES   REMARKS
SWIFT CURRENT  MOCLDY    28  25  86 NW15G21   30.11R WCI  17
REGINA         MOCLDY    32  28  86 NW21      29.99R WCI  20
SASKATOON      MOCLDY    34  28  80 N16       30.09R WCI  23
$$




USA.gov is the U.S. government's official web portal to all federal, state and local government web resources and services.